Content
SEND FEEDBACK

Daily
Averages
Monthly
Summary
Brazil

MACAE, RIO DE JANEIRO


Home > South America > Brazil > Rio De Janeiro
Elevation: 7 feet     Latitude: 22 21S     Longitude: 041 46W

WEATHER
 
SELECT A DAY
Number of Records: 102,175;   Date Range: 6/30/96 - 10/20/14
 
SHARE

PRINT THIS DATA

[ ← Previous Day ]
WEATHER ALMANAC - MARCH 29, 2013
[ Next Day → ]
[ °C ]   °F
Weather ElementAverageHighLow
Temperature76.6 °F86 °F (10:00 am)69.8 °F (5:00 am)
Dewpoint68.6 °F71.6 °F (3:00 pm)66.2 °F (1:00 am)
Humidity77 %94 % (10:00 pm)58 % (10:00 am)
Barometer30.04 in30.12 in (9:00 pm)29.95 in (3:00 am)
Wind Speed6.1 mph11.5 mph (1:00 am)
Weather ElementAverage
Visibility6.2 mi
Wind DirectionSW (230.4 °)

Weather ElementTotal
Precipitation---
Cooling Degree Days12.9 (Base 65)
Growing Degree Days27.9 (Base 50)
Averaged from 23 records on March 29, 2013
WEATHER CONDITIONS BREAKOUT
WIND DIRECTION BREAKOUT
WEATHER BY HOUR - MARCH 29, 2013
[ °C ]   °F
Local TimeTemperatureDewpointHumidityBarometerVisibilityWind DirectionWind SpeedGust SpeedPrecipitationEventsConditions
1:00 AM73.4 °F66.2 °F78 %29.98 in6.2 miWSW (250°)11.5 mphMostly Cloudy
2:00 AM71.6 °F66.2 °F83 %29.98 in6.2 miSW (220°)5.8 mphMostly Cloudy
3:00 AM71.6 °F66.2 °F83 %29.95 in6.2 miSW (220°)5.8 mphMostly Cloudy
4:00 AM71.6 °F66.2 °F83 %29.98 in6.2 miSW (230°)3.5 mphMostly Cloudy
5:00 AM69.8 °F66.2 °F88 %29.98 in6.2 miWSW (240°)5.8 mphMostly Cloudy
6:00 AM69.8 °F66.2 °F88 %30.01 in6.2 miWest (280°)2.3 mphPartly Cloudy
7:00 AM77.0 °F68.0 °F74 %30.01 inWSW (250°)4.6 mphClear
8:00 AM80.6 °F68.0 °F65 %30.04 inWSW (240°)6.9 mphClear
9:00 AM78.8 °F68.0 °F69 %30.06 in6.2 miWSW (250°)4.6 mphMostly Cloudy
10:00 AM86.0 °F69.8 °F58 %30.06 in6.2 miWSW (250°)4.6 mphMostly Cloudy
11:00 AM82.4 °F68.0 °F62 %30.06 in6.2 miSSW (200°)8.1 mphMostly Cloudy
12:00 PM84.2 °F69.8 °F62 %30.06 in6.2 miSSW (200°)10.4 mphMostly Cloudy
1:00 PM84.2 °F69.8 °F62 %30.04 in6.2 miSSW (210°)9.2 mphMostly Cloudy
2:00 PM80.6 °F69.8 °F70 %30.04 in6.2 miSSW (210°)8.1 mphMostly Cloudy
3:00 PM80.6 °F71.6 °F74 %30.04 in6.2 miSSW (210°)9.2 mphMostly Cloudy
4:00 PM78.8 °F69.8 °F74 %30.04 in6.2 miSSW (210°)9.2 mphMostly Cloudy
5:00 PM77.0 °F69.8 °F78 %30.06 in6.2 miSSW (210°)8.1 mphMostly Cloudy
6:00 PM77.0 °F69.8 °F78 %30.06 in6.2 miSSW (200°)6.9 mphOvercast
7:00 PM75.2 °F69.8 °F83 %30.09 in6.2 miSouth (170°)6.9 mphMostly Cloudy
8:00 PM75.2 °F69.8 °F83 %30.09 inSouth (190°)2.3 mphClear
9:00 PM73.4 °F69.8 °F88 %30.12 in6.2 miWSW (240°)2.3 mphMostly Cloudy
10:00 PM71.6 °F69.8 °F94 %30.12 inNW (320°)2.3 mphClear
11:00 PM71.6 °F69.8 °F94 %30.12 inWNW (300°)1.2 mphClear
Hourly data recorded from SBME, located miles away from Macae, Rio De Janeiro







STORIES FROM OUR PARTNERS